Theta_e
334 330 334 329 323 321 318 314 301 311 306 297 296 300 296 305 305 303 300 303 303 309 311 313 310 311 309 309 310 316 316 313 313 303 309 322 335 337 337 333 331 330 334 337 338 338 341 347 346 346 343 342 342 342 342 341 341 343 343 342 341 341 342 341 342 343 344 343 343 342 343 345 344 344 344 345 346 346 346 346 346 345 346 345 345 346 345 346 346 346 346 347 345 345 346 345 343
331 328 324 322 323 323 312 314 305 299 302 297 296 300 300 301 303 301 300 306 306 307 310 310 311 311 314 311 309 318 318 319 321 320 325 333 336 336 337 333 329 329 334 336 337 338 342 345 346 346 345 342 343 341 340 342 345 344 344 344 343 342 342 342 343 345 345 345 344 344 345 344 345 345 345 345 346 346 346 346 345 345 345 345 346 345 346 345 346 346 345 345 345 345 344 343 342
326 324 322 319 320 317 311 313 299 299 297 294 296 298 302 300 302 304 307 308 309 310 311 311 311 311 310 308 309 312 309 324 323 325 325 332 328 330 336 333 329 331 335 335 336 337 340 344 345 346 345 343 342 341 340 343 344 345 344 344 344 344 344 345 345 345 345 345 345 345 344 344 344 345 347 347 346 346 346 345 345 345 345 344 345 344 346 345 345 345 345 344 344 344 343 342 342
331 328 324 319 312 317 305 306 302 297 295 296 294 301 302 303 306 308 309 310 310 310 311 309 307 314 312 309 308 319 320 319 325 326 324 327 329 333 334 332 329 331 334 334 335 336 340 344 345 346 344 342 342 341 340 344 345 345 345 344 344 345 345 345 345 346 346 345 345 345 344 344 344 343 344 346 346 346 345 345 345 345 345 345 344 345 345 345 344 344 344 344 344 344 343 342 341
323 327 325 318 316 310 309 304 300 299 295 297 294 301 302 306 307 308 309 310 310 310 311 311 310 316 314 311 315 311 314 325 325 328 327 333 335 335 334 331 327 328 330 331 334 337 342 344 345 346 343 342 342 341 340 344 345 345 345 345 345 345 345 345 345 346 345 345 344 344 343 343 343 342 346 346 346 346 345 345 344 344 345 345 345 345 344 344 344 344 343 344 344 343 343 342 341
326 323 324 321 309 317 310 298 298 295 302 302 297 298 302 307 308 309 309 310 312 311 313 309 311 307 310 316 322 318 326 319 324 326 330 330 334 336 335 333 325 326 327 331 335 342 342 342 344 345 343 342 341 340 339 339 345 344 345 345 344 345 345 345 345 345 344 344 344 344 344 343 343 344 345 345 344 345 345 345 344 344 344 344 344 344 344 344 344 344 343 343 343 342 342 341 340
321 316 319 320 317 313 303 296 295 297 299 303 300 301 303 307 310 310 309 309 312 313 315 313 314 311 312 316 323 326 330 329 326 327 333 333 335 336 335 329 323 324 329 332 339 342 342 342 345 345 345 341 340 339 339 339 340 342 344 345 345 345 345 345 345 344 345 344 344 343 343 343 345 345 345 345 345 344 344 344 343 343 343 344 344 343 344 344 344 344 343 342 342 342 341 340 338
325 314 317 308 307 304 299 297 297 300 300 303 303 303 306 309 309 309 308 307 307 307 310 313 314 311 310 317 315 325 332 332 332 334 334 333 334 334 335 328 322 324 330 332 340 341 345 342 344 345 344 340 340 340 340 339 339 342 344 345 345 344 344 344 344 344 344 344 343 343 343 343 344 344 344 344 344 344 344 343 343 342 342 342 343 343 342 343 344 343 342 342 341 341 340 339 337
322 317 322 312 303 308 300 298 299 302 302 302 302 305 310 310 310 309 306 310 309 310 309 311 313 307 307 314 317 323 327 332 334 334 333 334 333 333 334 327 322 325 331 336 340 341 341 340 344 345 345 343 342 341 340 340 340 341 343 344 344 344 344 344 344 344 343 343 343 343 342 343 343 343 343 343 343 343 343 342 342 341 341 341 342 342 342 342 341 342 341 341 340 340 338 337 336
319 315 307 309 308 299 300 300 298 300 300 302 302 304 306 308 310 310 307 307 308 309 310 313 313 309 310 314 318 324 324 332 333 332 333 333 332 331 334 329 325 326 329 336 338 339 340 345 341 343 344 345 343 341 340 340 340 341 343 344 344 343 344 343 343 343 342 342 342 341 341 341 343 342 342 342 342 342 342 342 341 341 341 340 341 341 341 340 340 339 340 339 340 339 337 336 335
313 317 319 307 302 298 299 299 299 299 300 302 303 306 305 306 310 309 309 308 310 308 311 312 311 309 310 321 322 329 330 331 330 328 332 332 332 332 330 329 328 328 328 333 334 337 340 341 343 340 342 343 342 342 342 342 340 342 343 343 344 343 343 343 342 342 341 341 341 341 340 340 341 341 341 341 341 341 341 341 341 340 340 340 340 340 340 340 339 339 339 340 339 337 336 334 334
311 311 314 303 299 300 302 302 302 298 300 301 300 305 304 305 309 308 309 307 307 311 311 312 309 311 308 313 317 326 329 329 330 330 332 333 331 332 332 329 329 330 333 334 334 336 337 340 340 343 338 340 340 341 340 341 341 340 343 343 344 344 343 342 341 341 341 341 340 340 340 340 342 342 342 342 342 341 340 340 340 340 340 340 339 340 340 339 339 339 339 339 337 336 335 334 333
314 315 307 303 301 302 303 303 303 301 301 298 301 304 304 304 304 307 308 308 307 308 311 313 315 311 307 310 322 327 326 329 331 331 332 331 331 331 332 330 329 331 332 332 332 333 336 338 339 340 338 335 336 337 337 339 340 341 343 344 343 343 342 342 341 341 340 340 341 342 341 341 341 342 342 342 341 340 340 341 340 340 339 339 339 339 339 339 338 338 338 338 336 335 335 334 333
316 318 311 302 306 303 303 302 303 301 300 302 303 305 305 305 305 307 308 307 306 307 313 315 315 311 310 318 320 321 324 330 331 332 332 332 332 330 330 329 330 330 331 332 331 333 333 335 339 339 339 340 339 335 333 335 338 341 342 342 342 342 342 342 342 342 342 341 340 340 340 340 340 340 340 340 339 340 340 339 340 339 338 338 338 338 338 338 337 337 337 337 336 335 334 333 333
314 315 309 307 301 302 304 301 302 303 300 303 305 304 304 309 309 308 309 306 310 315 317 317 318 311 304 307 316 320 326 330 331 332 332 332 332 330 330 329 331 330 328 329 331 331 331 331 337 339 338 340 340 337 334 333 334 336 339 340 340 341 340 340 339 339 338 338 337 337 336 336 335 335 335 336 336 336 336 333 335 337 338 338 338 338 337 337 336 337 337 336 336 335 334 333 333
320 311 310 306 300 301 304 303 305 302 299 302 304 306 306 308 309 308 309 310 310 318 315 311 318 312 317 321 320 326 329 330 331 332 331 330 330 330 328 327 327 329 327 327 327 328 329 329 333 338 338 337 340 337 334 333 330 332 336 337 338 338 337 336 335 334 332 332 331 331 331 331 331 331 331 331 331 332 333 330 332 337 338 337 337 337 336 336 336 336 337 336 335 335 334 333 332
316 317 302 301 298 301 304 304 305 299 300 303 304 305 305 305 308 309 309 312 310 310 312 315 313 319 320 324 327 329 330 330 329 330 329 327 327 324 325 323 324 326 328 326 325 327 327 328 332 335 335 335 338 337 335 333 331 330 332 332 332 333 333 333 331 327 325 325 326 327 329 333 332 331 331 331 329 328 324 326 330 335 337 337 336 336 335 335 335 336 336 335 334 332 331 330 329
316 304 302 299 301 302 307 306 307 306 302 301 305 305 305 304 307 309 310 310 310 310 310 315 319 319 322 328 330 330 330 328 329 327 326 325 325 323 322 322 322 322 324 323 325 327 327 328 330 333 331 331 337 339 337 335 332 333 334 333 333 331 330 328 330 331 332 329 326 328 332 331 331 331 331 333 329 327 325 325 327 332 335 335 335 334 334 333 333 334 334 333 333 332 327 322 321
308 306 304 301 305 307 311 307 308 305 304 303 303 306 305 306 307 307 304 304 306 306 308 313 313 317 318 327 327 328 328 327 327 326 324 324 323 322 322 322 321 322 322 322 324 326 326 327 329 331 331 331 336 338 338 334 331 332 334 335 334 331 331 332 333 332 332 332 330 331 331 329 330 330 331 331 328 322 324 323 326 330 332 332 332 332 332 332 331 331 331 331 331 331 323 323 322
309 309 304 305 311 312 306 306 305 306 306 304 303 303 304 307 308 308 305 303 305 304 304 306 309 314 318 325 326 326 327 326 326 325 324 324 324 323 322 322 321 321 322 322 323 327 327 326 328 329 330 331 334 336 337 334 331 332 332 332 334 334 333 333 333 333 333 332 332 331 330 328 330 328 329 328 327 326 323 322 324 325 327 327 327 328 329 328 328 328 328 328 328 324 323 325 325
311 308 306 309 312 310 309 306 307 306 306 305 304 303 302 305 307 306 306 302 303 305 308 308 309 314 319 324 325 325 325 325 325 325 324 324 324 325 324 323 322 322 322 323 323 325 326 326 327 328 330 330 333 333 335 334 333 331 329 331 332 330 333 332 330 332 331 332 331 330 329 328 330 329 328 329 329 328 326 325 325 327 327 324 323 325 324 323 323 322 321 322 321 324 324 322 323
316 308 311 312 311 306 310 307 306 305 305 305 305 302 304 307 307 304 304 301 300 305 309 309 311 317 320 322 324 324 324 324 324 324 324 324 324 324 324 324 324 323 323 322 323 325 326 327 326 326 330 329 331 332 333 333 332 327 326 328 327 327 330 329 328 330 330 331 331 330 327 327 329 329 328 327 327 328 328 326 326 327 327 326 325 327 326 323 323 324 323 323 323 324 322 322 322
306 311 312 313 313 308 310 305 306 306 306 304 304 305 305 304 304 304 303 303 305 307 307 307 313 318 322 324 325 323 323 323 324 324 324 324 325 325 325 325 323 322 322 321 324 324 326 326 327 327 327 328 329 331 331 329 330 327 325 326 326 326 327 327 326 329 329 329 330 329 326 325 324 324 325 324 324 325 326 326 326 325 327 326 326 326 325 324 323 324 324 324 324 321 322 321 322
311 308 312 312 313 313 306 303 304 305 305 304 305 304 303 302 299 305 303 305 307 308 307 307 313 323 323 324 325 323 323 323 324 325 326 325 326 326 326 325 324 323 322 322 323 324 325 326 327 327 326 327 328 329 329 327 327 326 325 325 326 325 326 326 326 327 329 329 329 329 325 325 324 322 323 323 323 323 323 324 324 323 324 324 325 324 324 323 324 322 324 323 321 321 322 322 321
309 308 312 313 313 314 306 300 302 304 304 305 304 302 302 303 303 304 303 305 306 307 308 307 307 320 321 323 324 323 323 324 324 325 326 326 327 327 327 326 325 324 322 322 323 323 325 326 327 327 326 326 327 328 325 325 324 325 325 325 324 325 326 326 325 326 327 329 329 328 325 324 324 323 323 323 323 322 323 324 322 322 321 322 323 322 322 323 322 321 322 321 321 320 320 320 320
312 311 312 312 311 311 305 303 303 302 305 304 302 300 302 303 305 301 303 305 306 307 308 307 307 308 319 321 323 323 323 324 324 324 325 326 327 327 326 326 326 324 324 323 323 323 325 326 327 327 327 326 326 326 324 325 325 324 325 324 324 324 325 326 326 325 326 326 327 327 326 325 325 324 324 323 322 322 323 324 323 322 321 321 321 323 322 322 321 321 320 320 321 322 321 322 321
314 312 312 312 312 309 309 305 305 304 303 303 300 300 301 303 302 298 304 306 307 306 306 308 307 307 310 315 318 322 322 323 324 325 325 326 326 326 326 327 326 325 326 324 324 324 325 326 326 327 327 325 326 325 325 325 325 325 324 324 324 325 325 326 326 326 326 325 325 326 326 326 327 326 325 324 323 323 323 324 322 322 321 322 323 323 322 322 322 322 322 321 322 321 321 319 319
314 310 311 312 313 313 311 308 306 305 303 304 303 301 302 304 301 299 303 306 307 305 306 307 307 306 308 312 312 317 320 322 325 325 324 324 325 326 326 326 326 326 326 325 324 324 325 325 326 327 327 326 326 326 325 326 326 325 325 324 324 325 325 325 325 326 324 325 326 326 326 327 326 326 326 326 325 324 323 323 322 322 322 321 322 322 321 323 321 322 323 323 321 321 321 320 320
311 310 305 309 312 310 311 306 306 308 306 304 304 301 300 302 301 304 304 306 305 304 304 305 306 307 307 309 310 312 317 320 323 325 325 326 326 327 327 328 327 326 327 327 326 324 324 325 326 327 327 326 326 326 326 326 326 326 326 325 324 326 325 325 325 325 326 327 327 327 327 327 327 327 326 326 324 324 323 323 322 322 323 323 322 321 321 320 319 319 321 321 321 320 319 318 319
312 310 305 305 307 307 310 309 310 308 309 309 306 295 299 302 306 308 308 306 306 305 304 304 304 306 307 308 309 311 315 318 321 324 325 326 327 328 327 328 328 328 327 328 327 325 326 327 327 328 327 327 326 327 326 326 326 326 326 326 325 326 325 325 325 325 326 326 327 328 327 327 327 326 326 326 325 324 324 323 322 322 322 323 322 321 321 318 319 318 318 318 318 316 316 316 316
304 307 307 302 301 301 310 310 311 307 311 310 307 296 301 307 310 311 311 307 306 305 306 305 305 306 307 306 307 310 314 318 320 324 326 327 328 328 328 329 329 329 327 327 327 327 326 327 327 327 326 327 326 326 325 326 326 326 326 326 326 326 325 325 325 325 325 326 327 327 328 327 327 327 326 326 325 323 324 323 323 323 323 323 321 321 321 321 319 319 318 318 317 315 315 316 318
305 301 298 303 300 303 309 312 311 307 310 311 304 296 300 306 310 314 314 310 307 305 306 307 307 307 307 307 307 308 313 318 319 322 326 327 328 327 328 328 330 329 328 328 328 328 326 326 326 326 326 327 326 326 326 326 327 327 326 324 326 326 325 325 326 325 325 326 326 327 328 328 327 327 326 327 326 324 323 324 324 323 323 323 322 321 322 320 320 320 319 319 316 317 317 317 318
303 301 300 299 301 302 305 310 312 312 310 310 303 298 303 304 310 313 315 308 306 305 306 307 308 309 309 308 307 307 310 316 318 319 323 326 327 327 328 328 329 329 329 328 328 328 327 326 325 325 326 326 327 327 326 326 327 326 326 326 326 326 325 325 325 326 326 326 325 327 328 327 326 327 326 326 326 324 323 324 324 324 324 323 323 321 321 321 320 321 320 320 319 317 317 318 318
298 302 299 303 300 302 300 308 312 311 310 305 304 301 303 307 310 307 311 312 305 304 305 307 308 308 309 310 308 308 309 313 317 318 320 325 326 327 328 326 328 328 328 328 329 329 328 327 326 325 326 326 327 327 326 326 326 326 326 326 324 326 325 326 325 326 326 326 325 325 328 327 326 326 326 326 325 325 323 323 324 325 324 323 322 321 321 322 321 321 320 320 320 319 316 316 317
296 298 298 300 303 304 303 302 307 309 309 304 301 300 301 305 308 310 304 305 304 304 305 306 307 307 308 308 308 308 309 311 315 319 320 323 326 326 327 328 328 328 329 329 330 330 329 328 326 325 325 326 326 327 326 326 326 326 326 325 325 325 326 326 326 326 326 326 326 326 327 327 325 326 326 326 325 323 323 323 323 323 324 323 322 321 320 321 321 320 319 319 320 319 318 318 318
300 301 300 301 299 301 302 307 308 308 305 304 300 297 299 302 304 307 309 303 303 303 304 305 305 306 307 307 307 306 308 310 312 319 321 322 324 325 326 328 328 328 329 329 329 330 329 329 327 326 326 326 326 326 326 325 325 324 324 323 323 324 325 324 325 326 326 326 327 326 327 327 326 326 326 326 326 323 322 323 322 324 324 324 323 321 320 319 319 320 320 319 318 319 320 320 317
304 303 300 300 301 302 306 307 304 307 303 302 303 303 301 301 302 305 307 308 304 303 303 304 304 305 306 307 308 308 306 309 311 317 322 322 322 324 326 327 328 328 328 329 329 329 329 329 327 326 326 327 325 325 325 324 323 323 324 324 323 324 324 324 324 324 325 326 327 327 327 327 327 325 325 325 325 322 322 323 323 324 325 324 323 322 321 321 321 321 321 320 318 317 319 321 319
302 300 299 299 301 300 305 305 300 303 300 298 301 301 301 302 304 305 306 305 305 305 303 303 304 305 305 306 307 308 308 311 313 313 320 322 322 323 326 326 324 326 327 329 328 329 329 329 328 327 327 327 326 326 325 325 324 324 324 324 323 324 323 322 323 324 325 326 326 327 327 328 327 326 324 325 325 324 322 323 324 324 325 324 323 323 322 319 322 322 321 318 319 318 318 320 320
302 300 300 299 301 304 307 302 302 301 300 296 299 298 299 301 304 306 306 306 306 307 306 304 303 303 304 304 305 307 307 307 310 313 314 321 322 323 325 326 326 327 327 328 328 328 328 329 328 328 327 327 326 326 326 325 325 325 325 324 324 323 325 325 324 324 324 325 325 326 327 328 328 327 326 325 325 325 323 323 324 325 325 324 323 323 322 322 322 321 320 319 317 319 319 320 320
302 301 299 298 303 302 297 297 300 300 299 297 299 298 300 303 305 306 307 306 307 308 308 307 306 304 303 304 305 305 306 307 306 308 311 315 322 323 324 324 325 326 325 326 327 327 328 328 328 328 328 327 326 326 324 327 327 326 326 325 325 325 324 325 325 325 325 325 325 326 327 327 328 328 327 326 326 326 324 323 324 325 325 325 324 323 322 321 321 321 321 321 320 317 318 318 320
302 302 301 300 301 302 301 296 299 300 299 300 297 295 296 299 299 301 305 307 307 307 307 307 307 307 307 306 305 306 306 306 306 307 309 313 319 321 323 324 325 324 325 326 327 327 328 328 328 328 328 328 327 325 325 326 326 325 326 324 323 324 324 325 325 324 326 325 325 326 326 327 328 328 328 327 326 326 325 324 324 325 325 325 324 323 322 322 322 322 322 321 321 319 316 317 318
299 303 303 303 303 302 303 298 298 295 295 297 296 288 293 299 300 302 305 306 305 306 306 306 307 307 307 306 305 306 307 308 308 308 308 312 316 319 322 323 324 324 324 326 327 328 328 328 328 328 328 328 328 327 326 326 325 325 325 323 322 323 322 323 323 323 324 325 325 327 327 327 327 328 329 328 327 325 326 325 324 324 325 325 324 324 323 322 322 322 322 322 321 321 319 316 316
297 299 305 304 304 303 303 299 300 291 289 297 299 290 289 297 298 301 304 304 305 306 305 306 307 307 308 308 307 306 307 307 307 308 308 310 312 316 319 321 323 323 324 326 327 327 328 328 328 328 328 328 328 327 326 324 325 325 325 324 323 323 322 323 326 326 326 326 327 326 327 328 328 328 328 329 328 326 327 326 326 325 325 325 324 324 323 322 322 322 322 322 322 321 321 317 316
296 305 305 304 303 303 303 302 298 295 301 297 297 296 288 289 296 300 301 300 304 304 304 305 306 307 307 308 308 308 308 308 308 307 308 309 310 312 315 319 322 323 324 325 326 327 327 327 327 327 328 327 328 328 326 325 324 324 324 324 323 323 323 323 325 326 327 327 327 326 326 327 328 329 328 329 330 328 327 327 327 326 326 326 324 324 324 323 323 322 321 322 322 322 321 319 317
300 305 306 303 303 303 302 299 296 296 291 290 291 295 287 289 295 301 302 299 298 299 302 304 305 306 307 307 308 308 309 309 309 308 308 308 309 309 313 316 320 322 323 324 325 326 326 327 326 327 327 327 327 327 326 325 324 324 325 324 323 323 324 324 324 325 325 326 327 327 327 327 327 328 328 328 329 330 326 327 328 327 326 326 323 325 324 324 323 321 321 321 322 322 321 321 319
304 307 307 305 304 303 302 296 295 293 288 288 291 295 289 291 296 297 299 299 299 300 302 303 304 306 306 307 308 309 309 309 309 308 308 309 309 310 310 313 317 320 322 324 325 325 326 326 325 325 326 327 327 327 326 326 325 323 324 324 323 323 323 323 324 324 325 326 326 326 327 326 326 327 328 328 328 329 329 328 328 328 327 327 323 325 325 324 323 322 321 322 322 321 322 321 320
306 305 301 300 299 295 292 293 291 288 286 289 295 296 293 288 295 297 296 298 301 301 303 305 306 307 308 308 308 309 309 308 308 308 308 309 310 311 310 310 314 318 320 322 323 324 324 325 325 324 326 327 327 327 326 325 325 324 324 323 323 323 323 323 323 323 324 324 324 325 326 326 326 326 327 327 328 328 329 328 327 328 328 325 324 325 325 324 324 322 322 322 321 322 321 321 319
303 299 296 294 290 291 289 287 289 287 286 291 296 296 297 287 291 298 302 303 303 304 302 304 305 306 307 308 309 309 309 308 308 307 307 307 307 308 309 309 310 314 317 319 321 323 323 324 324 324 325 326 326 326 326 326 325 324 324 324 323 324 324 323 323 323 324 324 324 324 325 326 326 326 326 326 327 327 327 328 326 327 326 327 326 326 326 325 324 323 322 322 322 322 322 320 320
301 298 295 290 284 287 283 285 283 284 285 286 292 296 292 291 296 299 301 300 303 303 304 303 303 303 304 306 306 307 307 306 307 306 306 306 306 306 306 307 307 309 314 317 319 321 322 323 323 323 323 325 326 326 326 326 325 325 324 324 324 324 324 324 324 323 324 324 324 324 324 324 325 325 326 326 326 327 326 326 326 326 326 326 326 326 326 325 324 323 323 323 323 322 322 321 320
298 295 292 289 284 282 281 283 285 286 288 288 290 294 289 294 296 301 301 304 304 302 301 302 302 302 303 303 304 305 305 305 305 305 305 305 306 305 306 306 307 308 311 315 318 320 322 322 323 323 323 325 325 325 325 325 326 326 325 324 324 323 323 324 324 324 324 324 325 324 324 324 324 325 325 326 327 327 326 326 326 326 326 326 326 326 325 325 324 324 323 323 323 323 323 322 321
297 299 296 291 289 284 281 284 281 284 286 286 291 288 286 287 290 297 302 304 306 306 306 306 305 303 303 302 303 303 303 304 304 303 305 305 306 305 306 306 306 307 308 312 316 318 321 321 322 321 322 323 324 325 325 325 326 326 326 326 324 324 324 324 324 325 325 324 325 325 325 325 324 324 325 326 326 327 327 327 326 326 326 326 325 324 325 325 324 324 323 323 323 324 323 323 322
299 299 299 293 290 294 285 286 287 287 285 284 286 287 289 292 297 297 297 297 297 303 304 305 305 304 301 301 302 302 302 302 303 302 303 303 303 304 305 305 306 306 306 310 314 317 318 320 321 322 322 322 323 323 325 325 325 326 326 325 325 324 322 323 323 323 325 325 325 325 325 325 325 325 325 325 326 327 327 327 326 325 326 326 325 325 325 325 325 324 324 323 323 323 323 322 322
296 298 290 294 298 296 289 286 286 285 284 283 287 287 291 296 297 299 298 298 297 296 300 302 303 303 302 301 302 301 302 301 301 302 302 302 301 302 304 304 305 305 305 307 310 313 316 317 318 320 321 322 323 323 324 325 325 325 325 326 326 324 323 322 323 323 324 325 325 325 325 325 326 325 324 324 325 326 327 327 326 326 325 325 326 325 325 325 325 324 322 321 321 321 321 321 322
298 291 295 298 300 299 292 285 284 281 279 281 286 285 286 285 284 295 297 297 297 296 297 300 301 301 300 301 301 301 301 301 302 302 302 302 302 302 302 303 304 306 306 306 306 309 312 315 316 317 319 319 320 322 323 324 324 324 324 325 325 325 324 323 323 323 324 324 325 325 324 324 325 325 324 324 324 325 326 321 326 325 325 325 325 325 324 324 323 322 322 322 321 319 319 319 319
298 295 302 294 286 286 288 288 282 280 279 280 283 285 285 287 288 291 291 294 296 298 298 297 298 299 300 299 299 300 301 301 302 302 302 302 302 302 302 302 303 304 305 306 306 307 309 310 313 315 316 317 319 321 322 323 324 324 325 324 324 324 324 324 323 323 323 323 324 324 324 324 324 323 322 322 323 324 324 324 325 324 324 324 324 324 324 323 323 322 321 321 321 321 319 318 318
297 299 297 299 293 289 288 288 287 287 280 280 281 284 283 291 292 294 294 295 297 298 298 298 299 300 300 299 300 301 301 302 303 303 303 303 303 303 303 303 303 303 303 304 304 304 305 308 309 311 312 314 316 317 319 320 322 323 324 323 323 324 324 323 323 322 322 323 323 323 323 322 323 323 323 323 322 322 323 322 322 323 323 324 324 324 324 323 323 322 322 320 321 320 319 318 317
290 293 292 294 291 294 294 292 289 283 281 282 280 280 284 291 296 296 297 298 298 299 299 300 300 301 301 301 301 301 302 302 302 302 302 302 302 301 301 301 302 302 301 301 302 303 304 305 306 308 310 311 312 315 317 319 320 322 321 322 322 322 323 323 322 322 322 322 321 320 322 322 321 322 322 321 321 322 322 322 322 321 323 323 323 323 324 323 322 321 321 320 319 319 318 317 315
294 293 292 294 291 288 286 284 292 289 284 280 281 280 287 294 298 299 299 300 300 300 300 300 301 301 300 301 300 303 303 302 302 301 301 301 300 299 299 299 300 301 301 300 301 301 301 303 305 305 307 308 310 312 315 317 318 320 320 321 321 321 322 322 322 321 321 321 320 320 319 319 320 322 321 321 320 321 320 321 321 322 321 322 323 323 322 322 320 319 318 319 317 316 316 315 313
Wind_Speed
9 8 6 4 3 4 4 2 2 1 2 4 2 2 2 2 3 5 5 4 4 3 3 4 3 5 5 2 4 10 8 7 2 2 1 3 4 4 7 11 11 10 11 9 7 6 5 10 12 11 12 11 10 12 11 11 10 10 9 9 9 9 10 11 12 13 13 13 13 13 13 14 14 13 13 13 14 15 14 15 15 16 15 16 17 18 18 19 19 20 19 19 19 19 18 17 17
7 7 8 4 3 2 1 1 1 4 3 1 5 6 3 3 2 6 4 5 6 3 1 4 4 3 1 2 1 9 11 9 7 5 4 6 6 3 8 10 10 11 9 9 8 7 7 8 12 10 11 11 11 11 10 12 10 9 8 8 8 9 9 11 12 12 12 12 13 13 13 13 14 14 14 14 15 15 15 15 15 16 16 15 16 17 18 18 19 19 19 19 19 18 17 16 16
6 7 7 5 2 2 4 1 2 2 4 3 3 4 4 4 2 5 9 9 7 5 4 4 4 0 2 3 1 5 4 9 10 7 5 7 8 4 8 7 8 9 11 8 8 8 7 7 10 11 11 10 10 10 10 11 10 9 8 7 7 9 10 10 11 13 11 12 13 12 12 13 14 14 15 14 14 14 14 14 15 15 15 15 16 16 17 18 18 18 18 18 18 17 16 16 15
5 5 4 3 3 2 2 1 3 3 5 5 4 2 3 5 11 9 8 8 5 4 3 2 2 1 6 5 4 8 5 5 6 8 5 6 5 5 7 7 8 7 8 7 7 7 7 8 9 10 11 10 10 9 10 12 11 9 8 8 8 8 10 10 11 12 12 11 12 11 12 13 13 13 13 14 14 14 14 14 14 14 15 15 16 17 17 18 18 18 18 17 17 16 16 16 15
3 4 5 3 2 2 2 2 3 2 2 3 4 3 1 8 10 8 5 6 4 3 3 1 2 1 2 0 3 1 2 7 7 7 5 3 11 5 7 6 6 7 7 8 7 8 9 12 9 9 11 11 10 9 8 12 11 10 9 9 9 8 9 11 10 12 11 11 12 13 12 13 13 13 14 13 14 14 14 14 14 14 15 15 16 17 17 17 18 17 17 17 16 16 15 15 15
6 5 4 2 1 0 0 3 3 5 1 3 4 3 2 6 10 8 7 4 4 3 2 3 2 4 1 4 3 3 2 0 5 5 7 6 8 9 8 5 7 6 6 7 7 8 9 13 10 9 11 11 10 10 8 9 12 11 10 9 9 9 10 11 10 12 11 11 12 12 12 12 13 13 13 13 14 14 14 14 15 15 14 15 15 16 16 17 17 17 16 16 16 15 15 15 14
2 3 2 2 2 1 2 4 6 2 4 2 3 4 4 7 9 9 7 5 1 2 1 0 2 2 5 2 5 4 6 4 5 5 8 8 8 7 7 5 6 6 6 7 9 9 10 13 10 10 10 11 11 10 9 7 10 11 11 9 9 9 10 11 11 12 12 10 12 12 12 12 13 13 14 14 14 14 14 14 15 15 15 15 15 15 15 16 17 16 16 16 16 15 14 14 14
2 0 2 2 3 2 3 5 6 2 2 5 4 5 3 9 7 6 6 5 4 3 3 3 0 2 4 7 3 1 5 7 10 12 14 10 8 7 5 6 5 6 6 6 10 8 10 12 10 9 10 11 11 10 10 8 7 11 11 10 9 10 10 10 12 12 12 11 12 12 11 12 12 12 13 14 14 14 14 14 14 14 14 14 14 14 15 16 16 16 16 15 15 14 13 13 13
3 1 1 1 3 3 3 5 4 5 3 3 5 6 4 2 4 6 5 3 6 3 6 4 1 1 2 5 6 4 2 5 10 11 11 11 10 7 3 5 6 5 7 9 9 8 7 9 9 8 7 10 10 10 9 8 8 10 10 10 10 10 10 9 11 12 11 12 12 11 10 12 12 12 12 12 13 13 14 13 13 13 13 13 14 14 14 15 14 15 15 15 14 14 13 12 12
3 2 2 1 3 5 3 4 4 1 3 4 5 5 3 2 1 3 5 6 4 3 6 4 2 2 2 7 5 3 3 6 10 9 9 10 10 7 4 6 7 6 7 10 8 8 6 9 8 7 6 6 10 9 9 9 9 10 11 11 11 9 10 10 10 11 11 11 11 11 9 10 11 11 10 11 12 12 12 12 12 12 13 13 13 13 14 14 14 14 14 14 13 13 12 12 12
2 2 2 1 3 4 4 4 4 2 5 3 4 4 4 1 1 2 5 4 6 3 5 5 3 3 3 6 4 2 6 8 9 10 9 9 7 6 4 6 6 5 5 9 8 8 6 5 8 7 6 5 10 8 8 8 9 10 10 10 12 10 9 10 9 11 11 11 10 10 10 9 10 10 10 9 10 11 12 12 11 12 12 13 13 13 13 13 13 13 13 13 12 12 12 12 11
2 2 2 2 4 4 4 3 1 5 5 4 3 6 2 3 0 1 2 5 4 7 4 5 2 4 2 4 2 3 7 7 7 9 9 8 6 5 6 5 6 6 5 7 8 9 6 6 4 6 6 6 7 9 8 7 8 8 8 11 12 11 11 9 10 10 11 10 10 9 9 10 10 10 10 10 8 9 11 11 11 12 12 12 12 12 13 13 13 13 12 12 11 11 11 11 10
2 3 2 2 3 5 7 3 1 4 1 4 4 3 4 3 3 3 3 3 5 5 5 8 3 1 2 2 2 6 7 6 9 9 10 7 4 4 6 6 5 7 5 6 6 9 8 6 6 5 6 8 7 8 8 8 7 7 9 11 12 12 11 10 10 9 10 10 10 10 10 11 10 10 10 9 9 9 9 9 10 11 12 12 12 12 12 12 12 12 11 11 11 11 10 10 9
1 2 3 3 3 6 5 5 5 2 1 3 4 3 3 2 2 3 2 1 5 3 3 6 0 1 2 6 3 5 6 7 10 10 8 8 5 4 5 7 4 8 5 5 5 9 8 8 7 6 6 6 4 6 7 8 8 8 9 10 11 10 9 8 8 9 10 10 10 10 10 10 10 10 9 9 9 8 8 8 8 10 11 11 11 11 12 11 11 11 10 10 10 10 9 9 9
1 2 1 2 3 5 2 3 3 1 1 2 1 3 3 4 1 1 1 3 5 3 1 5 1 1 1 1 4 6 8 9 10 8 8 8 6 5 5 6 5 6 5 5 5 8 8 7 9 7 6 5 6 5 4 5 8 9 9 10 11 10 10 10 10 10 10 10 10 10 10 9 9 10 10 9 9 9 8 7 7 8 10 10 10 11 11 11 10 10 10 10 10 9 9 8 8
1 2 0 1 3 4 2 2 4 3 2 1 3 3 4 3 2 0 2 3 2 1 2 1 1 2 4 8 4 12 12 11 9 8 7 8 6 4 5 6 4 6 5 4 5 6 5 8 7 8 7 6 7 5 5 5 7 9 9 10 10 11 11 11 11 10 10 11 11 10 10 8 8 8 10 8 9 8 8 6 7 7 8 10 10 9 9 9 9 9 9 9 9 9 8 7 6
1 1 1 2 5 4 4 4 2 2 4 2 2 1 2 2 0 1 1 1 3 2 0 3 3 3 5 4 11 12 12 11 9 9 7 7 5 4 3 4 5 5 4 4 4 6 4 6 8 8 7 7 8 6 6 6 7 9 8 9 10 11 11 11 11 11 9 9 9 10 10 6 5 5 6 5 8 6 8 8 8 8 8 8 9 8 8 7 7 7 7 8 8 7 7 7 6
1 2 2 4 4 6 3 5 2 3 3 4 3 1 2 4 1 1 0 1 1 4 3 5 9 7 6 7 10 11 11 11 10 10 8 7 6 6 5 4 5 6 6 4 5 5 6 6 5 9 7 7 8 6 6 6 6 7 6 6 5 7 8 9 9 7 7 5 9 8 6 6 6 5 5 7 6 6 7 9 9 9 9 8 7 8 7 6 6 6 6 6 7 6 7 3 4
3 2 3 7 6 5 6 5 6 2 3 6 4 1 1 4 3 1 1 3 4 4 3 6 6 7 4 7 11 11 12 11 11 10 11 11 8 8 7 5 6 7 7 6 5 6 5 7 4 7 8 6 8 6 6 6 7 6 6 6 5 6 6 6 5 6 5 5 5 6 6 6 6 5 5 5 6 9 8 8 9 10 10 9 9 9 7 5 4 5 5 4 5 6 4 3 3
5 3 6 8 4 4 3 3 3 5 1 4 4 2 1 3 0 2 1 2 6 6 5 5 6 8 9 9 10 11 11 11 11 11 11 11 9 9 8 7 7 7 7 7 7 6 6 6 6 5 8 6 7 6 6 7 6 5 6 6 6 5 5 5 5 6 5 6 6 6 6 4 5 6 9 14 9 6 6 8 10 10 9 9 9 5 5 4 4 2 1 3 4 3 3 5 6
4 6 7 6 6 9 4 1 2 3 3 2 2 3 1 3 1 2 2 3 4 5 6 7 9 11 11 12 11 11 11 11 11 10 11 10 9 8 7 7 7 6 7 6 6 7 8 7 7 5 6 5 6 7 7 7 7 6 7 7 7 6 6 5 5 6 5 7 6 6 5 4 7 6 5 7 6 6 5 4 4 5 5 5 6 4 5 4 3 2 2 3 3 4 5 2 1
1 9 9 5 4 4 1 3 5 3 4 2 1 1 1 4 1 3 3 3 2 2 1 2 6 15 15 14 13 10 11 12 12 11 12 12 12 10 8 6 7 6 8 8 8 7 8 8 8 6 8 6 5 6 7 8 9 7 6 8 7 7 7 6 6 6 6 6 6 7 2 6 8 6 5 5 6 6 6 5 5 5 5 5 5 5 6 5 4 4 4 4 4 6 2 1 2
7 7 9 8 8 3 2 3 1 1 2 2 2 1 2 1 2 4 4 6 2 5 4 6 9 10 15 14 13 11 11 13 13 14 13 12 11 10 10 8 9 9 8 8 8 7 8 8 9 7 8 8 7 5 6 6 6 6 6 7 7 7 7 7 7 6 6 5 5 6 2 5 4 6 6 6 4 6 6 6 6 6 6 6 6 5 5 6 6 6 6 6 6 1 0 2 2
9 7 6 8 7 9 3 2 2 1 3 2 1 2 1 2 4 3 6 5 9 1 5 7 7 9 10 11 12 13 14 14 15 15 14 14 13 12 10 10 8 6 8 9 8 8 9 10 10 9 7 9 8 6 7 6 6 6 7 7 7 7 7 7 7 6 6 6 5 5 3 6 5 4 6 6 5 5 7 7 7 7 7 7 6 6 5 6 6 6 6 5 3 1 0 1 1
11 10 7 5 10 8 4 4 2 1 2 1 2 2 4 3 3 3 5 4 5 2 5 4 5 9 8 10 11 10 11 10 11 10 8 7 8 9 7 7 8 8 9 10 9 9 10 10 11 11 9 10 9 9 7 7 7 6 6 6 7 6 6 6 7 6 6 6 7 6 4 6 6 4 6 6 6 4 5 5 5 4 3 4 5 6 4 5 5 5 5 4 3 3 3 3 3
10 10 6 8 5 2 6 4 3 3 1 1 0 5 4 5 4 5 5 5 4 4 4 5 5 6 9 9 10 10 10 11 10 10 11 8 8 11 10 10 9 10 10 10 10 9 10 11 13 13 11 11 10 10 7 7 7 7 6 6 7 5 6 6 5 6 6 7 7 6 5 5 7 5 6 5 6 4 4 4 4 4 4 4 5 6 4 5 5 4 3 3 4 4 5 6 5
4 4 8 9 7 5 4 6 6 4 3 3 4 5 5 4 6 6 6 9 9 6 4 6 7 8 8 7 9 10 10 11 12 9 7 8 9 11 12 10 10 10 10 11 10 10 10 11 11 13 11 11 9 10 8 8 8 8 6 7 7 7 5 5 7 7 7 7 7 8 5 5 5 6 7 6 5 6 4 6 5 5 6 6 6 5 4 4 5 5 4 4 5 5 5 3 7
1 6 3 11 12 7 7 6 5 4 5 5 4 6 4 4 3 11 5 1 1 7 10 8 8 7 8 9 9 8 10 9 9 9 12 12 11 11 11 12 12 10 12 12 10 9 10 13 12 13 12 12 11 10 9 9 8 8 7 7 7 7 5 5 5 6 7 6 6 8 6 8 4 6 6 6 6 6 5 6 5 5 6 6 6 6 6 6 5 5 5 4 4 4 5 4 5
1 1 5 5 9 12 5 5 6 5 4 5 6 6 7 7 14 15 8 7 6 4 4 7 8 7 6 7 8 6 9 9 9 10 12 12 10 9 12 12 12 11 9 11 11 11 12 13 12 13 12 12 12 12 10 9 8 8 8 7 7 8 7 6 6 6 7 6 6 7 7 8 6 6 7 8 7 7 6 7 6 6 6 6 5 5 5 5 4 3 4 3 1 0 0 0 3
3 3 4 6 6 9 7 6 7 7 6 6 6 5 6 13 17 15 9 10 10 10 10 7 5 6 6 7 7 7 7 8 10 11 11 11 10 10 11 11 11 10 8 8 10 12 10 9 9 10 11 13 13 11 10 9 8 9 8 7 7 8 8 8 7 6 6 6 6 6 8 7 7 6 6 7 7 7 7 7 7 6 6 5 5 5 5 5 5 3 4 3 3 2 2 3 2
6 4 4 6 4 8 8 10 10 11 7 9 8 8 9 9 12 12 12 13 15 14 14 11 9 7 8 8 7 8 10 10 11 12 13 12 11 10 11 9 11 11 7 8 12 12 11 10 9 9 11 12 13 11 11 11 9 9 9 8 8 9 8 8 8 6 6 7 7 7 8 8 8 7 6 7 7 7 7 7 7 7 6 5 6 5 5 5 5 5 4 6 4 5 4 4 4
4 4 8 5 8 5 8 9 13 12 6 11 8 7 13 14 11 6 7 14 14 15 12 11 11 11 9 8 9 9 9 11 11 12 13 13 12 10 12 13 12 12 12 10 10 11 12 10 10 9 11 12 13 12 10 11 11 9 9 9 8 9 8 8 8 8 7 7 7 7 9 8 8 9 7 7 8 7 7 7 7 6 7 6 7 6 5 6 5 5 5 6 6 5 6 6 4
7 9 1 7 6 7 7 9 7 15 6 11 15 7 4 8 12 14 9 8 13 12 12 10 13 13 12 10 9 9 9 9 10 11 12 11 11 11 12 12 13 14 12 10 10 10 11 11 11 10 12 12 12 12 10 9 10 9 9 10 10 9 9 8 7 8 7 8 6 7 9 9 8 9 8 7 8 8 7 7 7 8 7 7 7 6 7 6 5 5 4 6 5 6 7 6 6
8 6 7 3 8 7 11 3 11 11 11 9 12 10 12 9 6 2 4 7 10 10 10 10 10 9 10 10 9 10 10 9 12 12 12 12 11 13 11 11 12 12 11 10 10 12 12 11 10 10 9 10 9 12 11 9 9 9 8 8 8 9 9 8 7 7 8 7 7 7 9 10 9 9 9 7 7 8 7 6 7 8 7 7 7 7 7 6 5 5 6 5 6 5 4 3 4
7 7 6 7 6 10 10 7 6 10 13 10 9 12 14 14 12 9 3 6 8 10 9 8 9 9 9 8 7 8 9 11 11 11 13 13 13 12 11 10 11 11 11 12 10 10 10 9 9 10 9 10 9 9 9 7 6 6 6 7 8 7 7 7 7 7 7 7 8 8 9 10 10 10 10 9 8 7 8 7 7 7 8 8 8 8 7 7 7 5 5 5 4 5 5 5 5
11 11 10 9 9 9 11 8 3 13 10 12 12 12 15 17 15 11 8 6 9 10 9 9 9 8 8 7 7 6 9 12 10 10 12 12 11 12 11 10 11 10 11 12 11 11 11 10 10 10 9 10 9 7 8 7 6 6 7 5 8 9 8 8 8 8 8 8 8 9 9 10 10 11 11 10 9 8 7 8 8 7 8 8 8 7 7 7 8 6 6 5 4 5 6 5 4
11 11 10 13 12 10 7 8 3 11 8 12 13 14 13 14 12 12 11 9 9 10 11 10 8 8 8 7 8 8 9 10 6 8 12 12 11 10 10 9 10 11 11 12 13 13 14 14 13 14 12 11 10 9 9 10 10 8 7 9 9 9 9 8 9 8 8 8 8 9 9 9 10 11 10 10 10 9 8 7 8 7 8 8 8 8 7 7 7 7 6 6 5 4 5 6 5
11 9 10 11 11 11 7 4 3 4 4 3 10 10 14 14 12 11 9 10 13 14 13 11 10 9 8 10 11 13 9 3 6 6 10 11 11 10 10 9 9 12 12 13 16 16 16 15 15 14 12 12 13 12 11 11 10 10 10 9 7 7 8 9 9 9 8 7 9 9 9 8 10 10 10 10 10 10 9 9 9 8 8 8 7 7 7 7 8 7 6 5 5 7 5 6 6
10 9 9 9 10 7 6 4 5 5 2 7 5 10 12 14 15 13 12 11 10 12 11 11 13 11 10 10 12 12 10 9 8 10 8 10 12 12 12 12 12 14 14 15 16 14 14 15 14 14 14 14 13 13 12 12 11 10 9 6 8 5 5 6 5 5 6 6 7 9 9 9 9 9 10 10 10 10 10 9 9 8 8 8 8 8 8 9 8 8 7 7 5 5 6 5 7
9 10 10 12 7 8 7 6 8 7 7 2 5 10 10 11 11 12 9 12 13 13 11 10 9 11 13 15 12 11 12 13 12 11 12 11 12 13 12 12 13 12 12 12 12 14 13 14 14 14 15 15 13 13 13 12 11 9 8 6 6 6 6 5 6 5 7 8 9 7 7 9 10 9 10 11 10 10 10 10 8 9 9 9 9 9 8 9 8 8 7 8 6 6 6 7 6
11 9 9 7 8 10 6 3 4 3 4 2 7 11 12 11 13 12 11 13 12 10 9 11 10 10 11 8 9 13 15 13 14 12 11 12 12 14 15 15 13 13 14 14 15 14 12 16 16 15 14 15 13 13 13 10 8 8 7 5 3 4 5 7 8 10 11 10 10 10 10 8 9 10 10 12 11 11 10 10 10 10 10 10 9 9 9 10 9 9 10 8 9 8 7 6 6
12 13 12 9 8 8 9 5 6 1 4 7 4 4 11 9 19 20 17 12 15 14 15 14 14 14 12 12 16 14 12 12 15 15 14 14 14 13 13 14 15 15 16 15 15 15 14 14 14 13 12 12 14 15 15 12 11 11 10 10 10 9 11 11 13 14 12 13 15 10 9 10 9 8 10 11 12 10 11 11 11 10 11 10 10 10 9 8 10 11 11 10 10 10 7 6 7
11 13 14 9 9 10 8 7 3 5 5 1 9 9 11 4 6 11 13 14 15 13 17 18 17 16 14 15 14 14 15 14 12 11 10 11 14 15 16 16 16 16 16 14 14 15 16 14 15 16 14 13 14 15 17 14 13 12 14 14 14 14 13 12 10 8 10 10 8 10 11 10 11 11 9 9 11 12 11 11 12 11 10 10 10 10 10 11 11 11 9 10 10 9 9 8 8
11 5 12 9 10 5 2 3 5 3 2 2 2 3 9 13 11 5 4 3 11 12 14 16 14 12 13 14 14 14 14 14 13 15 15 13 13 16 18 18 16 17 15 13 14 14 16 16 16 16 14 14 13 13 17 17 15 14 14 14 13 13 14 13 11 10 8 8 10 11 10 10 12 12 11 10 9 11 12 11 11 11 11 11 10 11 11 10 9 8 10 11 9 9 11 11 8
3 6 14 14 8 5 2 1 2 1 3 8 6 3 3 11 1 13 13 12 7 5 6 10 11 11 14 15 14 13 14 15 15 14 15 18 17 16 16 16 17 15 14 15 16 15 16 16 16 15 15 14 13 15 15 17 16 15 15 13 13 13 14 12 9 10 10 9 11 11 12 11 11 13 13 13 12 10 11 12 12 12 12 11 10 11 11 11 12 10 11 11 11 10 10 9 8
4 4 7 6 4 5 1 3 1 1 1 14 9 8 7 19 5 2 7 13 14 11 9 7 7 12 14 14 14 16 15 14 13 15 14 14 14 14 12 12 12 16 15 14 14 14 15 14 15 16 16 14 13 15 15 16 17 14 14 14 16 14 12 10 10 10 12 11 12 12 12 11 11 11 13 14 13 13 11 12 12 13 13 12 11 12 11 12 12 12 13 13 12 11 9 9 10
4 5 6 5 3 1 4 6 2 3 8 20 9 11 9 12 8 11 8 10 8 7 8 9 10 15 14 13 15 16 14 11 10 12 12 12 12 13 12 12 13 12 12 13 13 14 13 14 15 16 16 14 15 16 16 17 16 15 15 16 17 15 15 13 12 12 10 10 12 12 11 11 10 11 11 12 14 14 14 12 12 12 12 12 12 12 12 12 12 12 11 11 12 13 10 10 9
7 3 5 7 5 4 5 2 2 7 15 10 11 11 10 11 3 5 8 9 15 15 13 13 14 15 14 12 13 12 9 10 9 10 11 11 8 9 10 12 11 12 11 13 14 13 13 13 14 16 15 15 15 15 16 16 15 16 15 15 16 16 14 13 14 14 13 13 12 12 10 9 11 11 11 12 13 14 13 12 12 12 12 11 12 11 11 11 10 9 9 10 10 12 11 10 10
9 7 9 12 4 4 6 3 9 13 13 2 2 11 8 22 17 10 11 4 7 9 10 9 7 7 9 9 9 8 7 7 8 8 7 7 9 10 9 11 9 9 12 13 13 13 12 12 15 17 17 17 16 15 16 17 16 16 16 17 16 14 14 13 14 14 12 12 11 10 10 11 10 10 12 12 12 14 12 12 12 11 11 11 10 10 10 10 10 9 10 10 10 11 11 12 10
14 15 14 13 9 9 10 7 2 4 2 3 4 1 9 10 10 15 18 17 10 6 6 7 8 9 8 6 5 5 6 6 6 6 7 7 9 8 8 9 10 9 10 13 12 12 12 12 14 17 18 16 15 15 16 16 17 17 17 16 15 13 13 14 13 13 12 11 10 11 11 11 11 12 11 12 11 12 12 12 10 11 10 9 10 10 10 9 9 10 10 11 11 11 10 12 11
16 9 14 12 10 5 8 7 11 12 4 3 3 2 8 7 3 1 12 20 20 18 17 14 17 10 9 6 4 4 4 3 4 5 6 7 7 8 8 8 8 9 10 11 11 12 12 13 14 15 15 15 15 15 14 16 16 17 16 15 14 12 13 13 12 11 12 12 11 11 11 10 10 11 11 10 9 11 12 11 11 11 12 12 11 11 10 10 11 10 10 11 10 9 10 10 11
10 8 5 9 12 5 9 3 5 5 2 3 4 9 1 7 4 5 3 1 4 12 17 18 22 12 6 7 7 7 6 6 5 5 5 5 6 6 6 6 7 7 8 9 11 12 13 13 13 15 16 16 16 16 15 16 16 15 16 15 16 15 12 11 11 11 11 12 12 12 12 11 11 10 9 9 10 11 12 13 13 13 12 12 12 12 12 11 11 12 11 11 12 9 11 13 11
11 8 14 9 3 6 1 3 1 3 3 12 3 8 15 11 16 16 12 9 7 5 10 14 15 13 10 10 10 8 7 6 6 7 8 7 6 6 6 7 7 7 7 9 11 12 13 13 13 13 14 13 14 15 15 14 14 13 14 15 14 14 15 15 15 15 14 11 11 11 11 12 10 10 9 9 11 12 12 13 12 13 12 12 12 12 12 12 12 11 10 9 10 9 10 12 11
9 14 8 4 3 2 4 6 2 3 6 7 9 17 15 4 13 5 21 20 13 7 8 12 15 9 10 13 10 9 7 7 7 8 8 9 9 9 9 7 8 9 10 10 12 11 12 13 13 14 14 15 13 14 14 14 14 14 14 14 15 15 15 15 14 13 11 10 10 10 10 10 12 10 9 8 9 11 11 13 12 12 12 12 12 11 10 10 10 9 10 10 8 7 8 7 10
9 9 10 13 7 8 5 2 13 8 10 6 6 11 11 9 14 1 2 12 14 13 11 9 9 11 13 11 8 6 7 7 7 8 9 8 8 9 10 10 10 9 9 10 11 11 10 11 12 14 15 15 14 13 13 13 12 11 11 14 15 14 13 12 12 11 10 12 13 11 10 10 8 9 9 9 9 10 11 11 12 12 11 12 11 11 10 9 10 9 10 10 10 10 9 9 8
5 4 11 7 2 8 12 12 4 6 8 5 12 7 11 10 11 9 9 6 12 16 15 13 15 12 12 8 7 9 9 9 9 9 8 8 8 8 9 9 9 9 8 7 7 6 8 10 10 10 10 10 10 11 10 11 12 12 12 11 11 12 12 12 11 11 11 12 12 11 10 8 10 8 9 9 8 9 10 11 11 10 11 11 12 12 11 11 11 11 11 10 11 12 14 14 11
8 11 11 8 6 0 5 4 9 4 5 10 6 10 7 8 8 9 13 11 10 14 15 15 14 12 10 7 6 6 8 9 8 7 6 7 6 6 5 5 5 6 6 5 6 8 9 7 8 9 11 10 10 12 12 12 11 12 11 12 12 11 12 11 9 10 11 11 9 9 8 8 6 9 8 9 10 10 10 10 10 11 11 11 12 11 11 11 11 12 11 12 12 13 13 11 9
16 16 16 17 15 11 15 11 4 6 3 4 7 17 9 2 3 9 11 14 15 13 14 12 10 9 7 7 5 2 3 3 5 5 5 5 6 5 3 2 1 2 3 5 5 5 6 8 9 9 8 9 10 10 10 10 9 10 11 11 10 8 9 9 10 11 12 11 10 8 7 6 8 8 8 9 10 9 8 9 10 10 10 11 11 11 10 10 11 11 11 8 9 10 10 10 9
Wind_Direction
303 294 267 242 262 270 301 255 292 194 182 233 145 65 74 51 110 103 92 165 118 31 54 44 47 43 18 50 61 76 33 57 19 250 185 142 168 132 101 116 118 127 125 125 127 131 129 135 135 135 129 128 123 120 122 119 108 100 98 94 90 97 106 103 94 88 90 90 92 90 90 90 94 92 87 87 87 88 87 87 88 88 90 91 90 90 89 88 87 85 84 82 83 83 78 77 76
292 298 289 263 255 330 282 93 276 283 221 250 74 95 114 114 234 114 142 61 64 101 123 78 61 19 192 26 101 126 61 64 55 79 92 131 114 111 111 120 135 126 126 127 137 137 130 131 134 139 132 131 128 124 121 109 105 100 100 95 94 94 96 98 96 96 95 95 96 94 88 90 94 92 89 84 85 85 85 86 88 90 90 91 90 90 90 91 88 85 86 86 84 81 79 78 76
306 317 306 294 223 198 280 245 263 289 278 112 54 82 150 153 116 76 80 86 93 102 98 85 67 288 108 162 60 25 106 88 86 85 101 150 119 148 131 132 126 131 125 137 143 137 128 133 138 142 138 133 132 128 123 117 109 107 103 101 101 97 91 93 100 101 96 96 96 97 97 93 90 90 79 83 87 84 85 87 88 89 90 92 92 92 91 90 90 89 88 87 85 82 80 78 77
287 265 265 314 312 196 265 227 233 273 301 135 101 180 143 96 81 87 80 92 99 118 124 126 167 40 347 47 64 100 87 62 96 126 121 163 127 150 127 127 126 122 126 139 143 136 122 137 140 147 139 136 133 127 125 119 115 111 110 106 94 97 107 103 104 104 102 104 100 99 97 95 95 92 92 89 87 87 88 88 88 89 91 91 93 93 93 92 92 90 89 88 85 82 79 78 75
269 260 239 291 308 309 332 256 280 302 317 338 120 122 107 90 104 99 101 98 120 114 165 149 115 25 87 336 19 48 81 100 97 117 135 92 115 133 121 123 125 120 134 146 141 126 127 135 149 149 140 138 134 130 123 123 116 111 110 108 103 100 107 104 104 104 106 107 105 102 98 94 92 91 85 83 88 87 86 87 91 92 91 91 94 95 94 92 91 90 89 87 86 83 80 77 74
243 262 244 186 260 321 330 319 266 246 23 12 73 66 88 106 107 110 116 124 94 135 19 183 356 176 102 45 358 83 257 178 138 110 123 114 124 132 122 151 118 135 145 139 122 109 132 138 151 146 143 138 135 134 135 134 120 117 108 108 108 107 113 108 106 104 106 107 105 104 97 96 91 87 84 90 92 91 93 91 90 87 86 90 94 95 94 92 91 90 89 88 86 84 80 77 72
319 348 252 215 252 108 244 244 263 224 354 25 71 74 65 91 112 118 114 93 123 75 47 264 124 150 122 111 84 48 16 109 127 141 112 124 123 129 141 135 133 143 143 124 108 118 133 139 152 147 142 137 136 132 117 109 126 115 112 115 117 114 116 115 113 107 107 103 105 105 103 100 94 92 98 100 97 95 94 94 93 89 89 89 87 90 91 90 90 90 89 88 87 85 82 79 73
226 93 345 358 295 153 242 253 268 352 31 45 56 80 67 97 129 137 144 142 158 171 181 294 10 335 83 176 106 92 64 46 87 98 115 123 127 126 171 126 137 142 128 116 107 116 132 137 147 149 141 140 138 131 123 111 126 118 117 119 123 118 118 118 114 110 111 110 105 106 105 102 96 97 99 101 100 98 98 97 93 94 96 91 90 89 89 88 89 91 91 91 89 87 83 79 74
223 199 130 269 256 223 267 267 265 90 124 99 74 71 42 109 132 147 162 97 134 179 160 185 124 220 159 96 72 125 72 113 105 116 121 128 130 140 177 137 125 144 122 96 111 121 126 134 143 147 146 145 140 132 125 110 110 124 119 116 121 122 122 121 118 117 115 114 110 109 111 106 102 102 101 102 101 99 95 93 94 95 97 97 95 93 92 92 93 93 95 93 90 86 82 78 71
292 108 317 304 327 294 230 254 258 81 111 97 120 121 114 78 205 171 153 130 149 146 159 161 151 266 152 107 126 152 145 118 119 123 122 129 135 148 170 131 127 134 125 115 126 125 122 127 124 130 128 134 139 134 130 117 107 125 125 124 123 124 125 126 121 118 118 116 115 112 109 109 104 106 105 103 104 103 103 101 99 99 98 98 98 97 95 96 97 97 96 94 89 85 81 75 71
286 165 147 322 264 265 266 258 165 161 126 115 105 111 107 161 142 249 156 133 129 136 107 140 149 235 277 91 82 351 136 128 137 133 131 130 137 149 144 119 127 127 129 125 125 115 125 124 126 136 134 115 139 134 131 126 120 125 128 125 119 129 129 123 125 120 123 122 120 118 110 110 109 103 103 103 99 97 99 99 100 101 101 101 101 101 100 98 100 100 99 93 89 87 81 77 73
304 254 110 273 273 265 267 304 121 88 99 129 164 129 139 132 272 213 187 141 133 123 139 166 162 178 248 131 119 175 135 152 136 133 131 131 143 150 116 102 124 118 115 113 123 126 137 121 126 145 135 107 125 134 134 134 127 121 129 129 129 130 131 137 127 125 125 125 122 118 114 104 85 80 80 83 84 97 100 104 103 104 106 105 104 104 103 102 102 103 102 96 93 89 85 80 75
247 316 254 229 253 269 284 296 309 63 46 180 123 90 145 123 191 221 182 141 168 145 154 195 70 348 197 100 127 136 153 158 130 132 129 141 145 134 118 118 141 117 117 124 140 133 137 148 136 152 127 119 108 133 139 138 132 122 116 132 135 133 139 137 129 128 123 115 109 101 102 96 86 77 74 75 83 94 104 97 107 108 108 106 107 106 105 105 107 108 106 102 97 93 87 81 73
234 289 310 268 297 274 290 313 333 57 240 78 85 141 154 155 195 214 152 199 155 195 129 156 59 187 125 101 148 154 160 150 129 130 143 140 144 142 135 132 130 120 135 141 152 139 147 159 151 148 139 140 128 131 140 139 134 119 120 130 134 137 134 123 118 114 109 107 103 98 99 97 94 88 83 80 85 80 80 92 104 113 114 113 113 112 111 111 112 112 109 105 103 97 90 81 71
313 299 353 297 289 306 257 268 280 248 116 79 72 138 128 45 344 4 328 212 58 90 63 64 5 76 25 252 167 176 152 145 133 141 144 134 139 152 119 122 112 117 139 171 152 146 163 156 155 145 158 162 152 150 146 144 129 119 124 131 135 137 125 117 114 112 113 113 110 106 102 102 99 97 94 94 94 96 94 88 99 112 118 118 118 118 116 116 117 117 111 109 105 99 89 79 68
298 348 299 239 264 270 273 233 255 319 62 49 292 84 120 76 7 282 63 12 110 36 122 114 31 36 66 61 100 135 140 134 140 137 135 130 137 137 105 126 139 127 153 179 179 149 172 164 148 150 162 177 160 160 157 149 130 126 127 129 133 133 130 125 122 120 122 119 121 122 118 113 110 109 109 100 94 86 84 89 97 103 117 118 116 115 119 120 121 118 114 111 107 102 93 84 71
288 51 235 226 257 247 267 269 181 232 117 93 283 203 173 130 162 17 152 319 153 156 23 106 127 100 67 93 113 125 128 129 136 142 142 136 134 136 144 141 150 146 152 191 183 155 189 164 153 154 169 180 168 163 159 149 136 127 125 129 134 135 134 132 128 125 124 129 132 138 140 137 129 129 123 119 96 97 99 92 90 92 101 113 108 112 116 121 124 125 116 117 117 121 126 122 116
120 184 199 236 227 237 250 255 246 54 125 150 166 200 278 131 176 95 50 150 329 123 174 81 67 68 108 114 121 124 129 141 148 154 158 148 160 162 170 176 160 167 156 192 190 158 193 165 176 161 161 177 169 162 152 147 148 138 133 137 134 135 135 134 136 141 143 148 151 159 168 162 150 165 143 134 120 109 96 100 98 99 97 91 97 103 108 119 127 120 122 127 141 157 144 133 150
174 196 191 232 217 247 279 347 328 72 66 94 100 25 5 69 165 130 192 179 190 140 204 133 124 113 113 126 128 137 144 153 158 167 166 165 172 174 174 176 175 164 164 175 192 172 192 162 189 163 160 180 169 147 150 148 156 151 146 149 142 146 152 153 154 151 157 157 172 188 203 168 170 156 141 119 113 104 107 104 104 105 106 107 106 106 113 106 100 102 118 144 196 186 176 181 200
219 215 212 231 239 248 59 349 3 53 27 127 122 71 330 107 57 122 241 216 175 206 181 179 176 151 154 142 151 146 159 160 168 172 175 173 180 173 177 182 182 170 172 173 178 175 184 166 191 172 163 180 164 149 143 147 166 172 155 161 147 157 165 186 171 169 176 166 185 205 221 182 117 112 126 122 119 119 110 110 115 116 119 121 120 114 115 117 116 95 124 239 238 251 227 218 201
170 227 228 227 203 247 225 94 275 72 357 357 72 94 333 168 157 151 170 284 202 212 216 189 198 162 159 158 156 159 166 168 175 180 181 180 184 176 182 184 181 170 168 166 173 181 181 172 178 188 160 177 169 154 145 155 173 186 159 172 158 168 169 198 209 178 191 170 190 219 222 154 126 126 137 137 137 135 143 142 147 149 153 152 157 156 162 157 182 173 212 247 254 240 235 272 27
223 219 233 257 241 220 262 151 46 91 45 9 109 158 257 84 75 187 246 228 241 204 255 261 204 163 157 164 164 166 173 173 179 187 189 186 184 180 178 179 174 175 158 174 177 184 179 175 173 186 164 182 177 157 158 170 175 177 174 174 160 173 165 187 213 183 195 178 187 223 202 151 134 143 152 159 150 150 159 166 178 178 176 171 183 189 173 168 192 186 190 227 239 226 222 305 62
238 231 231 228 249 232 229 88 9 71 152 213 237 272 110 182 215 192 221 231 191 118 91 59 26 150 165 158 153 171 176 181 183 191 190 190 188 188 181 180 176 180 166 177 174 183 179 176 173 186 172 170 186 165 171 160 165 180 175 165 162 169 172 179 201 185 187 179 181 219 174 154 146 143 162 162 184 160 173 175 188 198 185 171 189 205 182 175 191 196 185 218 229 171 48 55 37
214 236 215 221 240 242 100 82 100 229 218 211 3 66 297 177 241 185 211 218 257 300 105 83 77 100 128 149 167 176 183 185 193 193 192 192 188 188 180 179 181 173 164 177 179 179 182 178 173 184 178 166 180 184 176 178 175 190 172 162 167 172 172 175 195 185 180 170 178 217 193 153 174 148 165 161 204 179 175 173 188 199 172 169 186 202 191 172 195 204 190 208 201 96 356 159 168
214 230 246 247 210 216 128 119 191 163 239 358 69 284 234 241 267 325 254 232 220 250 101 117 115 130 154 160 176 186 187 193 198 195 195 197 191 187 183 180 185 177 173 181 179 180 183 179 172 183 181 172 174 189 184 174 176 191 164 157 169 176 179 175 185 186 175 166 179 211 189 159 182 167 165 170 194 177 167 165 172 171 156 172 167 220 192 185 200 208 192 194 148 158 205 195 209
218 220 224 253 286 166 125 149 190 193 232 163 15 245 252 258 321 265 249 255 252 246 148 145 144 157 170 177 183 185 193 194 193 193 195 190 189 186 189 190 189 188 181 178 178 185 179 181 177 183 180 179 174 185 186 172 173 186 174 164 168 180 184 175 183 186 187 170 178 202 191 169 172 178 166 181 170 185 171 175 165 170 175 193 174 211 215 173 202 228 192 169 162 201 202 197 191
27 237 230 245 235 196 171 188 201 197 223 172 220 242 245 238 210 249 201 223 237 244 207 166 165 178 186 188 186 191 193 196 192 189 184 193 197 194 190 192 199 192 176 182 183 183 177 181 182 181 180 177 177 183 184 176 168 178 182 171 165 176 184 186 186 186 190 178 173 184 184 190 178 176 168 176 177 178 179 169 177 175 181 204 177 198 213 184 192 201 191 186 202 197 217 194 173
63 351 283 230 243 220 183 191 221 193 219 210 225 252 258 258 159 239 211 196 304 227 225 198 182 189 195 196 196 189 192 195 187 182 190 191 200 196 189 192 200 192 185 187 184 179 174 184 183 182 181 176 177 183 182 181 174 173 183 170 165 168 176 200 200 187 189 185 173 176 175 188 194 178 169 174 179 173 178 172 181 191 191 196 180 195 188 199 201 199 184 186 197 193 207 203 170
170 76 273 244 224 245 201 194 203 214 236 170 201 262 251 230 237 234 220 243 251 275 259 225 192 193 203 203 203 194 192 189 181 187 197 200 200 197 201 197 194 195 194 183 178 178 182 182 184 185 181 176 180 183 183 183 175 173 179 178 165 165 176 193 208 199 187 185 176 174 174 180 197 187 177 175 177 173 176 173 186 197 191 188 183 197 179 181 217 206 164 155 183 238 100 231 151
292 240 254 275 246 241 214 218 227 210 217 177 124 260 218 232 238 240 212 213 227 237 236 234 225 189 203 207 202 201 194 187 187 192 196 199 196 196 203 197 197 199 192 181 175 185 181 181 184 184 186 178 183 183 178 183 182 174 171 176 171 169 179 185 204 205 184 184 182 176 178 178 191 201 178 175 173 174 180 179 184 191 192 180 179 186 169 171 200 182 162 135 215 208 225 242 157
223 236 221 231 238 237 206 206 203 218 186 182 148 241 257 249 238 227 217 204 213 224 230 227 225 201 199 205 203 200 199 195 197 193 196 196 193 195 199 196 196 198 193 187 188 182 180 182 182 188 186 180 182 186 181 183 184 175 173 176 180 175 176 184 194 201 189 185 183 181 179 182 188 201 190 173 179 182 180 178 183 188 186 180 172 175 168 185 187 194 167 170 197 204 210 213 206
228 205 223 207 227 229 250 207 190 209 196 180 150 242 250 252 259 259 212 204 206 221 225 225 224 227 217 198 205 204 201 197 202 200 197 194 190 193 193 197 193 194 197 194 187 176 184 183 184 188 185 183 184 188 185 183 186 180 177 177 182 176 177 182 188 196 189 190 185 180 181 186 189 194 199 176 177 191 183 179 183 181 184 175 170 168 173 192 201 194 191 173 183 198 200 229 209
210 217 141 196 202 241 256 235 216 201 197 183 175 221 218 247 235 234 226 186 199 211 225 221 222 224 226 222 207 207 203 199 203 204 196 192 196 194 194 194 192 194 195 190 183 179 182 183 183 189 187 188 183 189 189 183 185 186 183 181 181 176 178 182 185 186 190 193 192 179 182 187 193 193 197 184 176 189 193 180 181 183 179 171 169 174 183 195 189 198 204 197 184 191 196 211 213
202 194 229 197 198 199 243 204 231 186 205 194 200 229 243 259 285 37 211 201 185 213 220 220 223 224 224 226 215 202 203 199 201 202 198 190 197 198 194 191 191 189 192 190 182 181 183 179 182 189 188 193 185 190 194 188 186 187 187 184 180 179 181 182 187 183 190 191 194 189 180 184 192 194 196 192 181 185 191 187 179 181 176 172 174 176 184 193 199 184 205 213 202 201 210 212 224
168 174 203 229 230 217 230 209 187 182 193 212 200 230 250 254 246 249 192 165 187 213 218 226 228 231 233 232 228 203 201 205 207 198 197 194 193 197 194 184 186 186 187 187 181 179 178 176 175 186 185 193 191 189 195 195 191 189 186 177 184 186 186 188 186 190 189 190 195 194 181 183 189 193 195 191 188 184 188 192 186 183 176 175 175 181 182 184 197 205 191 212 206 189 193 223 223
182 173 194 208 219 216 229 227 203 177 199 215 203 216 235 245 248 243 230 198 204 214 222 224 225 228 233 232 235 221 203 210 204 192 195 199 195 189 190 182 185 186 184 184 181 176 179 174 174 183 187 188 194 185 185 192 196 198 194 178 184 195 193 188 193 191 187 192 195 194 189 185 188 192 193 191 189 188 185 189 191 185 177 174 180 183 188 183 187 198 208 200 206 205 199 207 216
189 189 191 210 218 235 227 230 161 178 208 214 218 229 234 241 239 239 233 227 215 218 219 219 223 225 229 236 240 240 215 211 191 186 186 195 195 188 186 183 183 185 184 182 184 183 181 180 173 183 188 186 189 189 187 190 195 200 206 201 194 190 196 192 195 192 189 192 193 197 195 189 189 190 191 190 191 191 191 188 190 188 178 177 183 191 184 185 185 187 197 196 202 209 217 204 211
195 191 202 216 219 234 220 215 151 212 203 233 221 241 247 251 247 238 234 221 223 219 216 216 221 223 225 230 237 240 240 211 191 191 189 190 190 186 180 182 181 183 193 186 190 190 184 181 178 182 181 189 193 194 187 190 197 200 197 201 194 190 192 197 197 196 196 187 192 200 200 194 189 190 191 192 192 191 192 192 192 189 182 185 186 186 187 185 185 187 181 199 201 204 218 191 202
199 207 209 227 225 234 255 131 177 138 159 260 261 245 243 241 245 239 234 232 231 231 223 206 211 218 222 224 230 234 237 233 202 203 191 187 190 186 182 187 190 192 192 192 194 189 185 185 186 178 183 188 193 192 189 193 193 197 196 196 192 196 201 200 200 196 190 202 203 199 200 198 190 190 191 192 194 197 196 191 192 189 189 180 183 192 191 192 191 186 181 185 202 212 215 204 192
218 207 210 215 202 192 212 184 171 184 164 215 211 252 261 266 260 256 234 225 229 233 233 230 208 208 211 218 216 224 227 228 220 204 204 193 187 187 187 192 193 190 190 197 194 191 191 192 192 184 184 189 191 193 196 193 188 187 190 184 190 190 188 185 195 190 198 209 220 212 209 200 197 193 189 193 197 197 196 196 189 190 191 189 190 194 195 198 190 187 187 194 186 206 206 223 196
227 224 219 215 196 214 219 153 195 156 230 274 300 285 267 243 257 255 243 236 242 236 234 233 234 229 227 222 220 217 221 220 224 220 207 199 194 194 193 193 190 191 194 194 194 192 193 195 195 190 184 185 189 190 190 186 174 174 180 184 198 209 211 190 189 206 203 204 211 215 214 204 201 199 192 193 195 197 195 195 193 191 190 193 193 197 199 199 193 191 191 194 200 206 208 203 217
216 227 227 217 209 216 214 126 162 204 261 196 155 321 264 200 224 235 236 230 227 225 230 228 229 230 228 228 228 226 226 221 219 219 210 202 200 200 200 197 195 197 198 197 194 192 193 195 193 192 191 185 187 187 184 180 186 182 177 184 198 205 210 204 203 201 196 201 208 206 208 211 210 204 198 195 195 195 196 197 197 194 194 192 194 197 197 192 196 197 197 195 204 207 201 191 208
209 212 217 234 225 216 198 142 153 229 234 223 162 210 276 134 233 223 232 234 229 215 220 227 227 228 227 229 230 227 225 228 231 230 220 204 206 201 202 200 201 200 201 195 191 194 195 193 193 192 193 193 186 183 181 182 186 189 189 193 197 201 206 215 215 202 200 207 198 202 207 208 212 211 212 202 195 197 199 199 200 200 198 197 193 195 198 197 196 198 193 199 202 199 200 214 203
226 157 191 224 249 236 235 186 182 249 40 52 255 216 280 278 237 277 287 252 226 210 213 221 223 225 228 231 231 228 226 225 223 225 225 220 208 204 205 204 200 203 199 192 194 194 195 195 194 194 194 194 191 181 182 185 189 189 189 194 198 204 209 214 206 208 202 193 197 202 202 207 208 211 214 218 208 195 199 201 199 200 201 200 193 201 201 197 195 198 196 199 198 197 201 210 212
210 154 167 204 220 256 197 217 227 84 64 261 196 213 304 256 201 193 223 257 260 245 203 208 211 216 228 231 233 232 227 224 221 222 222 219 217 211 208 204 204 200 195 196 196 194 194 196 196 193 195 193 193 186 182 187 191 191 193 192 197 207 209 212 203 203 207 196 198 199 202 204 203 206 211 216 219 208 197 203 201 203 204 203 198 203 205 198 200 197 196 197 199 200 200 204 206
215 139 170 164 195 240 222 207 168 30 82 251 198 171 226 270 207 203 205 222 224 225 230 229 207 216 224 227 228 229 230 226 221 223 224 224 227 229 219 211 201 201 199 195 197 195 195 195 195 192 195 192 192 191 187 188 192 192 195 198 201 204 203 207 204 204 205 201 203 199 200 200 201 202 206 210 216 219 208 203 205 205 206 206 202 205 201 202 202 202 199 198 198 199 200 201 205
126 147 133 162 163 67 37 34 67 52 250 248 192 193 188 282 250 209 194 215 207 220 236 232 233 238 234 227 224 227 228 222 217 221 224 223 220 223 222 213 208 202 198 194 196 199 198 193 193 195 195 193 192 193 191 191 192 193 199 201 204 204 201 201 201 209 204 201 206 203 196 200 198 203 201 207 210 210 215 209 207 208 207 207 207 206 205 203 203 200 197 196 197 199 200 201 199
148 162 143 86 6 55 32 14 55 206 246 253 163 204 179 232 292 175 196 203 192 200 215 218 220 233 236 232 233 231 217 212 214 209 219 221 219 219 216 221 213 203 192 195 199 197 197 196 190 194 197 196 194 194 193 194 192 196 201 203 205 208 202 199 204 206 203 204 205 205 199 191 200 202 202 207 208 208 207 211 209 208 208 206 207 206 207 204 201 199 197 196 198 200 199 197 199
174 144 150 166 181 142 215 135 207 206 231 355 168 165 208 229 240 331 306 336 179 203 216 221 230 249 251 231 213 207 202 203 205 209 209 210 210 211 212 219 214 200 197 196 197 195 194 195 193 192 198 197 196 193 193 195 194 196 200 204 207 207 206 205 206 208 205 207 204 203 197 203 197 199 205 204 206 203 203 207 206 207 207 206 206 205 209 204 203 202 205 204 201 198 199 197 199
186 174 175 179 175 185 207 191 273 275 249 241 102 170 265 277 287 227 245 260 261 258 253 258 246 247 255 232 215 210 208 202 207 204 205 206 205 205 202 206 208 205 200 197 196 193 194 197 197 197 200 196 196 195 196 196 198 200 202 204 206 203 207 209 209 208 206 208 204 205 204 204 203 207 204 207 202 198 203 207 203 208 209 206 206 207 205 205 205 209 211 212 209 207 200 199 202
195 170 182 193 184 182 184 182 202 210 234 171 216 82 223 181 237 159 222 222 232 239 245 248 248 229 234 249 256 236 233 234 206 215 212 200 197 193 198 200 204 206 203 197 192 194 194 199 200 201 199 199 197 197 197 200 201 204 204 204 205 203 206 209 212 209 205 205 205 206 207 205 207 209 208 205 191 196 202 204 205 203 205 208 207 210 210 208 209 212 214 217 216 207 205 204 207
200 184 155 204 208 117 211 191 210 209 180 198 196 216 259 208 333 316 318 18 249 226 235 240 251 241 238 252 248 239 234 231 206 206 223 219 201 194 196 204 204 201 201 194 195 194 196 200 199 201 200 198 197 197 200 201 203 204 204 202 204 203 205 207 211 213 211 204 204 205 207 206 209 207 205 191 192 191 197 203 207 209 204 205 207 209 211 211 211 213 215 213 216 205 206 205 208
179 176 206 195 23 217 210 18 340 62 37 253 182 270 261 290 277 260 271 269 257 238 233 239 246 241 235 239 241 239 231 223 209 208 214 220 224 224 211 206 207 205 200 196 197 197 199 199 200 202 205 203 200 200 201 201 206 204 204 204 201 202 204 206 209 209 207 204 202 206 208 209 206 204 200 189 188 192 194 200 205 208 208 205 204 204 205 205 203 205 206 203 205 199 203 204 205
155 206 189 89 45 74 181 213 156 186 223 251 182 229 253 155 278 215 210 221 230 234 236 233 237 234 234 236 236 232 225 216 215 214 213 214 214 216 217 218 210 205 202 202 201 198 198 199 199 201 203 205 203 199 201 203 203 205 206 207 206 204 206 210 212 212 207 204 207 206 204 205 208 202 195 190 184 187 194 195 202 205 207 206 207 202 197 195 193 199 200 204 202 194 205 205 207
215 199 136 165 188 209 195 169 223 197 220 244 232 225 244 192 239 5 176 218 214 225 236 246 253 242 243 242 232 226 218 217 215 217 215 216 215 213 210 212 216 214 209 207 207 199 196 199 202 202 203 204 202 200 201 204 202 205 207 209 209 209 208 209 210 208 203 207 210 207 203 204 196 192 190 185 186 186 190 193 197 202 201 205 205 205 201 200 197 204 205 209 207 210 217 220 217
307 135 175 210 317 212 177 201 237 202 233 227 254 198 250 206 239 223 249 201 207 211 221 227 234 233 238 238 212 216 219 214 212 212 211 213 216 212 206 206 207 210 211 210 205 201 203 203 200 206 209 207 205 205 198 201 202 204 207 207 208 210 210 209 205 201 204 208 209 206 205 198 199 185 194 190 185 189 188 190 195 197 199 202 205 207 205 208 209 216 214 217 217 214 220 221 220
198 182 187 181 214 247 204 208 210 178 210 229 284 270 239 244 193 204 212 215 206 207 212 221 230 238 243 245 227 216 213 211 207 205 209 214 219 212 202 193 193 202 204 196 188 196 204 198 203 204 204 205 204 203 200 205 201 204 202 204 207 205 208 206 202 201 206 209 207 202 201 197 176 197 189 192 196 196 191 189 189 194 197 199 203 205 205 206 209 214 215 213 208 206 210 212 199
190 187 194 189 176 171 186 217 191 220 186 218 214 251 264 227 164 204 207 212 215 203 206 215 221 224 221 227 223 172 150 183 196 205 205 203 200 182 158 116 79 114 170 188 201 190 196 199 202 199 200 205 204 206 203 201 199 198 202 204 204 201 202 200 201 202 206 207 206 200 193 184 197 199 190 196 196 194 189 189 191 195 198 200 201 202 198 200 204 204 207 205 203 202 207 208 204